When you browse on this site, cookies collect data to enhance your experience and personalize the content and advertising you see.
Visit our Privacy Policy to learn more. By continuing to use the site, you agree to this use of cookies and data.
  • In Portugal
  • List of Countries
  • For 7 days
  • Water Temperature
  • Weather Map
  • Weather Widgets
  • user-avatar
    Login

    Hourly Weather Sevan

    Today, 27 May, Wednesday

    Time Temperature Precipitation Wind Pressure Humidity
    00:00 +14°C° 0 mm 2 mps 645 mmHg 59%
    01:00 +14°C° 0 mm 2 mps 644 mmHg 61%
    02:00 +13°C° 0 mm 2 mps 644 mmHg 62%
    03:00 +13°C° 0 mm 2 mps 644 mmHg 64%
    04:00 +14°C° 0 mm 2 mps 644 mmHg 65%
    05:00 +14°C° 0 mm 2 mps 645 mmHg 67%
    06:00 +15°C° 0 mm 2 mps 646 mmHg 68%
    07:00 +17°C° 0 mm 2 mps 646 mmHg 62%
    08:00 +19°C° 0 mm 2 mps 646 mmHg 56%
    09:00 +21°C° 0 mm 2 mps 647 mmHg 50%
    10:00 +23°C° 0 mm 2 mps 647 mmHg 47%
    11:00 +23°C° 0 mm 2 mps 647 mmHg 45%
    12:00 +24°C° 0 mm 2 mps 647 mmHg 42%
    13:00 +25°C° 0 mm 2 mps 647 mmHg 41%
    14:00 +25°C° 0 mm 2 mps 646 mmHg 39%
    15:00 +26°C° 0 mm 2 mps 646 mmHg 37%
    16:00 +25°C° 0 mm 1 mps 646 mmHg 43%
    17:00 +24°C° 0 mm 1 mps 646 mmHg 48%
    18:00 +24°C° 0 mm 1 mps 646 mmHg 53%
    19:00 +22°C° 0 mm 1 mps 645 mmHg 55%
    20:00 +19°C° 0 mm 2 mps 645 mmHg 58%
    21:00 +17°C° 0 mm 2 mps 645 mmHg 60%
    22:00 +17°C° 0 mm 2 mps 644 mmHg 57%
    23:00 +17°C° 0 mm 2 mps 644 mmHg 55%

    Tomorrow, 28 May, Thursday

    Time Temperature Precipitation Wind Pressure Humidity
    00:00 +16°C° 0 mm 2 mps 644 mmHg 52%
    01:00 +16°C° 0 mm 2 mps 644 mmHg 52%
    02:00 +16°C° 0 mm 2 mps 644 mmHg 52%
    03:00 +15°C° 0 mm 1 mps 644 mmHg 52%
    04:00 +16°C° 0 mm 1 mps 644 mmHg 54%
    05:00 +18°C° 0 mm 1 mps 644 mmHg 55%
    06:00 +18°C° 0 mm 1 mps 644 mmHg 57%
    07:00 +20°C° 0 mm 1 mps 645 mmHg 52%
    08:00 +22°C° 0 mm 1 mps 645 mmHg 47%
    09:00 +24°C° 0 mm 1 mps 645 mmHg 42%
    10:00 +25°C° 0 mm 1 mps 645 mmHg 40%
    11:00 +26°C° 0 mm 2 mps 645 mmHg 37%
    12:00 +27°C° 0 mm 2 mps 645 mmHg 34%
    13:00 +27°C° 0 mm 2 mps 645 mmHg 33%
    14:00 +28°C° 0 mm 2 mps 644 mmHg 32%
    15:00 +28°C° 0 mm 2 mps 644 mmHg 31%
    16:00 +27°C° 0 mm 2 mps 644 mmHg 34%
    17:00 +26°C° 0 mm 1 mps 644 mmHg 37%
    18:00 +26°C° 0 mm 1 mps 643 mmHg 41%
    19:00 +24°C° 0 mm 1 mps 643 mmHg 44%
    20:00 +22°C° 0 mm 1 mps 643 mmHg 47%
    21:00 +19°C° 0 mm 2 mps 643 mmHg 49%
    22:00 +18°C° 0.1 mm 2 mps 642 mmHg 50%
    23:00 +18°C° 0.1 mm 2 mps 642 mmHg 51%

    Day after tomorrow, 29 May, Friday

    Time Temperature Precipitation Wind Pressure Humidity
    00:00 +19°C° 0.1 mm 1 mps 642 mmHg 52%
    01:00 +17°C° 0 mm 2 mps 641 mmHg 52%
    02:00 +17°C° 0 mm 2 mps 641 mmHg 52%
    03:00 +16°C° 0 mm 2 mps 640 mmHg 52%
    04:00 +17°C° 0 mm 2 mps 640 mmHg 53%
    05:00 +17°C° 0 mm 2 mps 640 mmHg 54%
    06:00 +18°C° 0 mm 2 mps 640 mmHg 56%
    07:00 +20°C° 0 mm 2 mps 640 mmHg 50%
    08:00 +23°C° 0 mm 2 mps 641 mmHg 45%
    09:00 +25°C° 0 mm 2 mps 641 mmHg 39%
    10:00 +26°C° 0 mm 3 mps 641 mmHg 37%
    11:00 +27°C° 0 mm 4 mps 641 mmHg 36%
    12:00 +28°C° 0 mm 5 mps 640 mmHg 34%
    13:00 +28°C° 0 mm 5 mps 640 mmHg 33%
    14:00 +29°C° 0 mm 5 mps 640 mmHg 31%
    15:00 +29°C° 0 mm 5 mps 640 mmHg 29%
    16:00 +28°C° 0 mm 5 mps 639 mmHg 33%
    17:00 +26°C° 0 mm 5 mps 639 mmHg 37%
    18:00 +25°C° 0 mm 4 mps 639 mmHg 41%
    19:00 +22°C° 0 mm 4 mps 639 mmHg 41%
    20:00 +20°C° 0 mm 3 mps 639 mmHg 41%
    21:00 +18°C° 0 mm 2 mps 639 mmHg 41%
    22:00 +17°C° 0 mm 2 mps 639 mmHg 42%
    23:00 +16°C° 0 mm 2 mps 639 mmHg 43%

    30 May, Saturday

    Time Temperature Precipitation Wind Pressure Humidity
    00:00 +15°C° 0 mm 2 mps 639 mmHg 44%
    01:00 +14°C° 0 mm 2 mps 639 mmHg 43%
    02:00 +14°C° 0 mm 2 mps 639 mmHg 42%
    03:00 +13°C° 0 mm 2 mps 639 mmHg 41%
    04:00 +13°C° 0 mm 2 mps 639 mmHg 42%
    05:00 +14°C° 0 mm 1 mps 639 mmHg 42%
    06:00 +14°C° 0 mm 1 mps 640 mmHg 43%
    07:00 +15°C° 0 mm 2 mps 640 mmHg 39%
    08:00 +17°C° 0 mm 2 mps 641 mmHg 34%
    09:00 +19°C° 0 mm 2 mps 641 mmHg 29%
    10:00 +20°C° 0 mm 3 mps 641 mmHg 29%
    11:00 +21°C° 0 mm 3 mps 642 mmHg 28%
    12:00 +21°C° 0 mm 3 mps 642 mmHg 27%
    13:00 +22°C° 0 mm 3 mps 642 mmHg 27%
    14:00 +22°C° 0 mm 3 mps 641 mmHg 28%
    15:00 +23°C° 0 mm 2 mps 641 mmHg 28%
    16:00 +23°C° 0 mm 2 mps 641 mmHg 32%
    17:00 +23°C° 0 mm 2 mps 642 mmHg 36%
    18:00 +22°C° 0 mm 1 mps 642 mmHg 40%
    19:00 +20°C° 0 mm 1 mps 642 mmHg 39%
    20:00 +17°C° 0 mm 2 mps 641 mmHg 39%
    21:00 +15°C° 0 mm 2 mps 641 mmHg 38%
    22:00 +15°C° 0 mm 2 mps 641 mmHg 39%
    23:00 +14°C° 0 mm 2 mps 641 mmHg 41%

    31 May, Sunday

    Time Temperature Precipitation Wind Pressure Humidity
    00:00 +14°C° 0 mm 2 mps 641 mmHg 43%
    01:00 +13°C° 0 mm 2 mps 641 mmHg 44%
    02:00 +13°C° 0 mm 2 mps 641 mmHg 46%
    03:00 +13°C° 0 mm 2 mps 641 mmHg 48%
    04:00 +13°C° 0 mm 2 mps 641 mmHg 50%
    05:00 +14°C° 0 mm 1 mps 641 mmHg 53%
    06:00 +15°C° 0 mm 1 mps 642 mmHg 55%
    07:00 +18°C° 0 mm 1 mps 642 mmHg 51%
    08:00 +19°C° 0 mm 1 mps 643 mmHg 47%
    09:00 +20°C° 0 mm 2 mps 643 mmHg 42%
    10:00 +21°C° 0 mm 2 mps 643 mmHg 40%
    11:00 +23°C° 0 mm 2 mps 643 mmHg 37%
    12:00 +24°C° 0 mm 2 mps 644 mmHg 34%
    13:00 +24°C° 0 mm 2 mps 643 mmHg 32%
    14:00 +25°C° 0 mm 2 mps 643 mmHg 31%
    15:00 +25°C° 0 mm 2 mps 643 mmHg 29%
    16:00 +24°C° 0 mm 1 mps 642 mmHg 35%
    17:00 +24°C° 0 mm 1 mps 642 mmHg 40%
    18:00 +23°C° 0 mm 1 mps 642 mmHg 46%
    19:00 +21°C° 0 mm 1 mps 642 mmHg 49%
    20:00 +18°C° 0 mm 2 mps 641 mmHg 52%
    21:00 +16°C° 0 mm 3 mps 641 mmHg 56%
    22:00 +16°C° 0 mm 2 mps 641 mmHg 55%
    23:00 +15°C° 0 mm 2 mps 641 mmHg 55%

    1 June, Monday

    Time Temperature Precipitation Wind Pressure Humidity
    00:00 +15°C° 0 mm 2 mps 641 mmHg 54%
    01:00 +14°C° 0 mm 2 mps 641 mmHg 55%
    02:00 +14°C° 0 mm 2 mps 641 mmHg 55%
    03:00 +14°C° 0 mm 2 mps 641 mmHg 55%
    04:00 +14°C° 0 mm 2 mps 641 mmHg 56%
    05:00 +15°C° 0 mm 1 mps 641 mmHg 58%
    06:00 +16°C° 0 mm 1 mps 642 mmHg 59%
    07:00 +18°C° 0 mm 1 mps 642 mmHg 52%
    08:00 +19°C° 0 mm 2 mps 642 mmHg 44%
    09:00 +21°C° 0 mm 2 mps 643 mmHg 37%
    10:00 +23°C° 0 mm 2 mps 643 mmHg 35%
    11:00 +24°C° 0 mm 3 mps 643 mmHg 33%
    12:00 +25°C° 0 mm 3 mps 642 mmHg 32%
    13:00 +25°C° 0 mm 3 mps 642 mmHg 31%
    14:00 +25°C° 0 mm 3 mps 642 mmHg 31%
    15:00 +25°C° 0 mm 3 mps 642 mmHg 31%
    16:00 +25°C° 0 mm 3 mps 641 mmHg 35%
    17:00 +24°C° 0 mm 3 mps 641 mmHg 38%
    18:00 +24°C° 0 mm 3 mps 641 mmHg 42%
    19:00 +21°C° 0 mm 2 mps 641 mmHg 41%
    20:00 +19°C° 0 mm 2 mps 640 mmHg 39%
    21:00 +17°C° 0 mm 2 mps 640 mmHg 37%
    22:00 +16°C° 0 mm 2 mps 640 mmHg 38%
    23:00 +16°C° 0 mm 2 mps 640 mmHg 39%
    Show more